Cedar Rapids, IA

11:59 PM CDT on September 24, 2017 (GMT -0500)
The Eastern Iowa Airport

Weather History for KCID - January, 2013

Change the Weather History Date:

Monday, January 7, 2013

  Actual Average Record
Temperature  
Mean Temperature 27 °F 19 °F  
Max Temperature 38 °F 28 °F 55 °F (2003)
Min Temperature 15 °F 11 °F -27 °F (1910)
Degree Days  
Heating Degree Days 38 46  
Month to date heating degree days 328 317  
Since 1 July heating degree days 3027 3056  
Cooling Degree Days 0 0  
Month to date cooling degree days 0 0  
Year to date cooling degree days 0 0  
Moisture  
Dew Point 22 °F    
Average Humidity 76    
Maximum Humidity 88    
Minimum Humidity 64    
Precipitation  
Precipitation 0.00 in 0.03 in 0.11 in (1975)
Month to date precipitation T 0.22  
Year to date precipitation T 0.22  
Sea Level Pressure  
Sea Level Pressure 30.13 in    
Wind  
Wind Speed 11 mph (South)    
Max Wind Speed 24 mph    
Max Gust Speed 28 mph    
Visibility 10 miles    
Events      
T = Trace of Precipitation, MM = Missing Value Source: NWS Daily Summary

Daily Weather History Graph

Daily Weather History Graph

Search for Another Location

Airport or City:

Trip Planner

Search our weather history database for the weather conditions in past years. The results will help you decide how hot, cold, wet, or windy it might be!

Date:

Astronomy

Jan. 07, 2013 Rise Set
Actual Time 7:34 AM CST 4:52 PM CST
Civil Twilight 7:03 AM CST 5:23 PM CST
Nautical Twilight 6:28 AM CST 5:58 PM CST
Astronomical Twilight 5:54 AM CST 6:32 PM CST
Moon 2:57 AM CST (1/7) 1:04 PM CST (1/7)
Length of Visible Light 10h 20m
Length of Day
9h 18m
Waning Crescent, 22% of the Moon is Illuminated
Jan 7
Waning Crescent
Jan 11
New
Jan 18
First Quarter
Jan 26
Full
Feb 3
Last Quarter

Hourly Weather History & Observations

Time (CST) Temp. Windchill Dew Point Humidity Pressure Visibility Wind Dir Wind Speed Gust Speed Precip Events Conditions
12:52 AM 17.1 °F 7.6 °F 12.9 °F 84% 30.27 in 10.0 mi SSE 6.9 mph - N/A   Clear
1:52 AM 15.1 °F 6.4 °F 12.0 °F 88% 30.27 in 10.0 mi South 5.8 mph - N/A   Clear
2:52 AM 17.1 °F 7.6 °F 12.9 °F 84% 30.27 in 10.0 mi South 6.9 mph - N/A   Clear
3:52 AM 18.0 °F 8.7 °F 14.0 °F 84% 30.26 in 10.0 mi South 6.9 mph - N/A   Clear
4:52 AM 19.0 °F 8.2 °F 15.1 °F 85% 30.24 in 10.0 mi South 9.2 mph - N/A   Clear
5:52 AM 21.0 °F 8.1 °F 17.1 °F 85% 30.20 in 10.0 mi South 13.8 mph - N/A   Clear
6:52 AM 23.0 °F 10.6 °F 18.0 °F 81% 30.19 in 10.0 mi South 13.8 mph - N/A   Clear
7:52 AM 23.0 °F 10.6 °F 18.0 °F 81% 30.18 in 9.0 mi South 13.8 mph - N/A   Clear
8:52 AM 26.1 °F 12.7 °F 19.0 °F 75% 30.17 in 9.0 mi South 18.4 mph - N/A   Clear
9:52 AM 28.9 °F 17.3 °F 21.0 °F 72% 30.16 in 10.0 mi South 16.1 mph - N/A   Clear
10:52 AM 34.0 °F 23.0 °F 24.1 °F 67% 30.14 in 10.0 mi South 18.4 mph - N/A   Clear
11:52 AM 36.0 °F 24.4 °F 26.1 °F 67% 30.09 in 10.0 mi South 23.0 mph - N/A   Clear
12:52 PM 37.0 °F 27.0 °F 27.0 °F 67% 30.05 in 10.0 mi SSW 18.4 mph - N/A   Clear
1:52 PM 37.9 °F 28.5 °F 28.0 °F 68% 30.04 in 10.0 mi South 17.3 mph - N/A   Clear
2:52 PM 37.9 °F 32.7 °F 28.9 °F 70% 30.05 in 10.0 mi Variable 6.9 mph - N/A   Clear
3:52 PM 37.0 °F 31.0 °F 28.9 °F 73% 30.06 in 10.0 mi South 8.1 mph - N/A   Clear
4:52 PM 36.0 °F 29.0 °F 28.0 °F 73% 30.06 in 10.0 mi South 9.2 mph - N/A   Clear
5:52 PM 35.1 °F 29.3 °F 27.0 °F 72% 30.06 in 10.0 mi South 6.9 mph - N/A   Clear
6:52 PM 34.0 °F 26.6 °F 27.0 °F 75% 30.06 in 10.0 mi South 9.2 mph - N/A   Clear
7:52 PM 33.1 °F 26.1 °F 27.0 °F 78% 30.06 in 10.0 mi SSW 8.1 mph - N/A   Clear
8:52 PM 32.0 °F 27.5 °F 26.1 °F 79% 30.06 in 10.0 mi SSW 4.6 mph - N/A   Clear
9:52 PM 28.9 °F 25.2 °F 25.0 °F 85% 30.06 in 10.0 mi SSW 3.5 mph - N/A   Clear
10:52 PM 28.9 °F 21.9 °F 25.0 °F 85% 30.06 in 10.0 mi South 6.9 mph - N/A   Clear
11:52 PM 28.0 °F 20.0 °F 25.0 °F 88% 30.05 in 10.0 mi South 8.1 mph - N/A   Clear